Regional Weather Roundup
Issued by NWS

Home | Current Version | Previous Version | Graphics & Text | Print | Product List | Glossary On
Versions: 1 2 3 4 5 6 7 8 9 10 11 12 13 14 15 16 17 18 19 20 21 22 23 24 25 26 27 28 29 30 31 32 33 34 35 36 37 38 39 40 41 42 43 44 45 46 47 48 49 50
000
ASUS43 KLSX 182307
RWRMO

WEATHER SUMMARY FOR MISSOURI
NATIONAL WEATHER SERVICE SPRINGFIELD MO
500 PM CST THU DEC 18 2014

NOTE: "FAIR" INDICATES FEW OR NO CLOUDS BELOW 12,000 FEET WITH NO
       SIGNIFICANT WEATHER AND/OR OBSTRUCTIONS TO VISIBILITY.
       CURRENT SKY AND/OR WEATHER CONDITIONS ARE NOT AVAILABLE FOR
       CHILLICOTHE AND FARMINGTON.

MOZ001>031-035>038-043-044-053-054-190000-
...NORTHERN AND WESTERN MISSOURI...

CITY           SKY/WX    TMP DP  RH WIND       PRES   REMARKS
KANSAS CTY INT CLOUDY    32  29  88 E6        30.21R WCI  26
KANSAS C DTWN  CLOUDY    33  29  85 NE6       30.21S WCI  28
LEE`S SUMMIT   CLOUDY    32  29  88 NE6       30.21R WCI  26
ST JOSEPH      CLOUDY    32  27  81 E3        30.23R
CHILLICOTHE      N/A     31  26  82 CALM      30.24S
KIRKSVILLE     CLOUDY    30  28  92 NE7       30.23S WCI  23

$$
MOZ066>068-077>081-088>096-101>105-190000-
...SOUTHWEST MISSOURI...

CITY           SKY/WX    TMP DP  RH WIND       PRES   REMARKS
SPRINGFIELD    CLOUDY    38  36  92 N3        30.15S
JOPLIN         CLOUDY    38  36  92 N6        30.18R

$$
MOZ032>034-039>042-045>050-055>058-069>072-190000-
...CENTRAL MISSOURI...

CITY           SKY/WX    TMP DP  RH WIND       PRES   REMARKS
COLUMBIA       CLOUDY    33  30  88 E6        30.21R WCI  28
JEFFERSON CITY CLOUDY    34  31  88 NE5       30.23R WCI  30
ROLLA          CLOUDY    33  31  92 E5        30.17S FOG     WCI  29
SEDALIA        CLOUDY    34  31  88 E3        30.21R
WHITEMAN AFB   CLOUDY    33  31  91 NE5       30.21R WCI  29
WARRENSBURG    CLOUDY    32  32 100 NE3       30.22R FOG
OSAGE BEACH    CLOUDY    36  32  87 NE3       30.19S

$$
MOZ051-052-059>065-190000-
...EAST CENTRAL MISSOURI...

CITY           SKY/WX    TMP DP  RH WIND       PRES   REMARKS
ST LOUIS INTL  CLOUDY    36  27  69 E5        30.24S
SPIRIT OF STL  CLOUDY    33  30  88 CALM      30.24R FOG
ST CHARLES     CLOUDY    34  26  72 N7        30.25R WCI  28

$$
MOZ072>076-082>087-097>100-106>115-190000-
...SOUTH CENTRAL AND SOUTHEAST MISSOURI...

CITY           SKY/WX    TMP DP  RH WIND       PRES   REMARKS
CAPE GIRARDEAU CLOUDY    36  32  85 NE5       30.23S
FARMINGTON     CLOUDY    34  32  93 N5        30.21S WCI  30
POPLAR BLUFF   CLOUDY    38  32  79 NE7       30.22R
WEST PLAINS    CLOUDY    37  33  85 CALM      30.17S

$$


USA.gov is the U.S. government's official web portal to all federal, state and local government web resources and services.